Temperature
21 18 17 18 18 19 21 21 20 21 23 24 23 23 25 26 26 25 25 24 24 25 26 26 25 24 23 23 22 22 22 21 20 19 19 18 18 17 17 17 17 16 16 16
19 18 19 20 21 21 21 20 20 21 23 24 23 23 23 24 25 26 26 25 26 25 25 25 24 23 23 23 22 22 22 21 20 19 19 18 18 17 17 17 16 16 16 15
18 19 21 21 21 21 21 20 20 21 22 23 24 22 22 23 26 27 28 28 27 26 26 25 24 23 23 22 22 22 21 20 19 19 18 18 17 17 16 16 15 15 15 15
19 20 21 21 21 21 20 21 22 22 21 20 22 20 20 21 23 24 26 27 27 27 26 25 24 23 22 22 22 21 20 19 19 19 18 18 17 17 16 16 15 14 14 14
19 20 21 21 22 22 21 22 22 23 22 20 20 20 19 20 22 23 23 27 27 26 26 24 24 23 21 21 20 20 19 19 18 18 18 17 17 16 16 15 14 14 13 13
20 21 21 22 23 23 23 23 21 18 17 19 20 20 19 20 22 22 23 25 26 25 24 22 21 21 20 19 19 19 18 18 18 17 16 16 16 15 15 14 13 13 12 12
20 21 22 23 23 23 22 19 18 19 17 18 19 20 19 20 21 21 21 22 23 23 21 20 19 18 18 18 18 17 18 17 17 16 16 15 15 14 14 13 12 12 11 11
18 19 21 23 22 21 20 19 17 18 18 18 20 20 20 21 21 21 21 20 20 20 19 18 18 18 17 17 17 17 17 16 16 15 15 14 14 13 12 12 11 11 10 10
18 19 22 23 24 22 21 19 18 17 18 18 18 20 20 20 19 19 18 18 17 17 17 17 16 16 16 16 16 16 15 15 14 14 13 13 12 12 11 11 10 10 9 9
19 20 22 24 24 23 21 20 16 16 17 17 19 19 18 18 17 17 16 16 16 16 16 16 15 15 15 15 15 15 14 14 13 13 12 12 11 10 10 9 9 9 8 8
19 19 20 22 22 22 21 21 18 16 16 17 17 17 18 17 16 16 15 15 15 15 15 15 15 15 15 14 14 14 13 13 12 11 11 10 10 9 9 8 8 8 7 7
17 17 18 20 22 22 22 21 18 17 17 16 16 16 17 16 15 15 15 15 15 15 14 14 14 14 14 13 13 13 12 11 11 10 9 9 9 8 8 7 7 7 6 6
17 16 17 18 18 20 20 20 19 17 16 15 16 15 16 15 14 14 14 14 13 13 13 13 13 13 12 12 12 11 10 10 9 9 8 8 7 7 7 6 6 6 6 5
17 15 16 17 17 19 19 20 19 17 16 16 16 15 14 13 13 13 13 13 13 12 12 12 12 11 11 11 10 10 9 8 8 8 7 7 6 6 6 6 5 5 5 5
15 15 16 17 18 19 19 19 19 19 18 16 15 14 13 12 12 12 12 12 12 11 11 11 11 11 10 10 9 8 8 7 7 7 6 6 6 5 5 5 5 5 4 4
13 15 15 15 17 18 18 18 18 17 17 16 14 12 12 11 11 11 11 11 11 10 10 10 10 10 9 9 8 8 7 7 6 6 6 5 5 5 4 4 4 4 4 4
13 13 13 13 16 16 15 15 15 14 14 14 13 12 11 10 10 9 9 10 10 9 9 9 9 8 8 8 7 7 6 6 5 5 5 4 4 4 4 4 4 4 3 3
13 12 11 13 14 14 14 14 14 12 12 12 11 11 10 9 8 8 8 9 9 9 8 8 8 7 7 6 6 6 5 5 4 4 4 4 4 3 3 3 3 3 2 2
12 12 11 11 13 14 14 14 14 12 10 11 10 10 9 8 8 7 7 7 8 8 7 7 7 6 6 5 5 5 4 4 4 3 3 3 3 3 3 3 2 2 1 1
12 11 11 11 12 12 12 13 13 12 10 10 10 9 9 9 8 7 6 6 6 6 6 6 5 5 5 4 4 4 4 3 3 3 3 3 3 3 2 2 2 1 1 0
11 11 11 11 11 11 11 12 13 12 10 9 9 9 9 7 7 6 5 5 5 5 5 5 4 4 4 4 4 3 3 3 3 3 3 3 2 2 2 1 1 1 0 0
10 10 10 10 10 10 9 10 9 8 8 8 8 8 7 6 6 5 5 4 4 4 4 4 4 3 3 3 3 3 3 3 3 3 3 2 2 2 1 1 1 0 0 -0
10 10 9 9 8 8 8 8 8 8 8 7 7 7 7 6 5 4 4 4 4 4 3 3 3 3 3 3 4 3 3 3 3 3 2 2 2 1 1 1 0 0 -0 -0
10 10 8 8 7 7 7 7 7 7 7 7 7 7 6 5 4 4 3 3 3 3 3 3 3 3 3 3 3 3 3 3 3 3 2 2 2 1 1 1 0 0 -0 -1
10 10 8 7 7 6 6 6 6 6 6 6 6 6 5 5 4 4 3 3 3 3 3 4 4 4 3 3 3 3 3 3 3 3 2 2 1 1 1 0 0 -0 -1 -1
8 8 8 7 7 6 6 6 5 5 5 5 5 5 4 4 4 4 4 4 4 4 4 4 4 4 3 3 3 3 3 3 3 3 2 2 2 1 1 0 0 -0 -1 -1
Wind_Speed
6 5 7 10 9 8 5 7 10 13 12 8 12 15 18 16 11 14 17 18 19 22 23 17 16 18 17 16 17 18 19 18 15 11 10 8 7 5 5 6 11 13 14 14
3 9 12 9 7 7 8 11 13 14 13 7 8 11 12 12 10 13 17 18 19 17 14 16 17 18 20 21 20 19 18 16 13 9 7 6 7 6 5 5 9 12 14 13
12 9 9 9 9 10 11 12 15 14 14 8 5 9 9 9 5 5 9 12 14 17 18 18 19 20 19 19 19 16 14 12 11 11 10 10 7 5 4 6 6 8 13 14
10 12 9 10 13 12 12 14 15 14 9 8 1 4 10 8 9 7 7 7 9 12 14 16 18 19 18 15 12 12 12 11 11 11 12 13 9 7 5 5 5 6 10 12
9 10 12 14 17 16 14 15 10 8 4 3 5 1 9 8 9 11 10 9 8 9 12 15 16 15 13 12 12 12 11 10 9 9 11 10 8 7 7 7 8 7 6 8
11 8 10 14 16 14 12 5 3 4 5 2 6 2 8 7 9 10 8 5 3 5 8 10 11 13 13 13 13 12 12 10 9 10 10 11 12 12 11 9 7 6 5 4
10 11 9 7 8 8 4 5 3 4 4 6 6 2 8 10 9 8 6 1 3 8 13 14 15 14 14 14 12 11 11 10 9 9 9 10 11 11 11 9 7 7 5 4
8 10 8 8 10 9 7 11 9 7 6 6 4 4 5 7 6 6 7 9 11 13 14 14 14 14 13 12 11 11 11 10 9 10 9 9 10 7 6 7 7 6 6 6
9 9 8 9 9 10 7 7 11 9 5 2 6 5 5 9 12 13 13 14 14 14 14 15 14 13 12 11 10 10 11 10 10 10 10 10 9 9 8 8 7 6 6 6
9 6 6 5 2 3 11 10 7 7 6 5 5 3 4 6 7 10 12 13 13 14 14 14 13 13 12 11 11 11 11 11 10 10 9 10 9 9 9 9 8 8 6 5
6 6 6 4 3 3 1 4 6 7 7 8 3 2 3 1 4 10 11 12 13 14 13 13 11 11 11 11 12 12 10 10 9 9 9 10 9 8 8 8 8 7 6 5
2 5 3 4 4 3 2 3 6 6 6 7 7 2 6 4 6 10 12 12 13 12 11 11 11 10 10 10 10 11 10 9 8 8 9 9 8 9 8 7 7 6 6 5
4 6 3 6 8 8 7 6 3 4 4 4 6 4 7 8 11 11 11 11 10 11 10 10 9 9 9 9 9 9 9 8 8 8 9 9 9 9 8 8 7 7 7 7
4 5 5 3 1 4 5 6 6 6 4 3 5 7 5 8 10 10 10 10 10 9 9 9 9 9 9 9 9 9 8 8 9 9 9 9 8 8 8 8 8 8 8 7
6 5 4 3 5 6 5 7 6 4 3 6 9 8 5 6 8 9 9 10 10 9 9 9 9 9 9 9 9 9 9 8 9 10 9 8 8 8 8 8 8 8 7 7
5 4 5 7 9 9 9 10 8 8 6 13 15 8 6 7 10 11 10 9 9 9 10 9 9 9 9 9 10 10 9 9 9 10 8 8 8 8 8 7 7 7 6 6
3 4 4 4 7 6 8 9 9 10 9 6 6 6 7 10 13 11 10 10 9 8 8 8 8 9 9 9 10 10 10 9 9 9 8 7 7 7 7 7 6 6 5 5
4 3 3 2 5 3 3 9 16 16 16 13 12 9 10 11 10 10 9 8 8 8 8 8 9 10 9 9 9 10 10 9 9 8 7 7 6 7 7 7 6 5 4 3
4 6 4 3 2 1 3 4 2 6 7 8 8 8 9 11 8 7 7 7 8 8 8 9 9 10 10 9 9 10 9 8 8 7 6 5 6 7 6 6 4 3 3 3
6 5 5 4 2 3 1 7 3 9 4 4 4 2 4 6 2 3 5 7 9 9 9 10 10 10 10 8 8 9 7 6 6 5 5 5 5 6 5 4 3 3 3 3
4 4 3 3 2 0 4 9 4 3 3 1 2 2 1 2 3 8 9 8 9 10 10 9 9 9 7 6 7 7 6 5 4 5 5 5 5 5 4 3 3 4 4 5
1 1 1 3 3 4 5 5 4 3 1 1 2 2 6 9 11 11 10 10 10 10 9 8 8 7 5 5 6 5 4 3 4 5 5 5 4 4 4 4 4 5 5 5
2 2 3 2 3 1 4 5 3 2 2 1 1 3 10 12 12 12 11 10 9 9 7 6 6 6 4 3 4 4 1 2 3 4 4 4 5 4 4 4 5 5 5 4
2 2 5 5 4 3 5 5 5 5 3 2 3 6 10 13 13 13 11 9 8 7 6 4 5 5 3 2 2 1 0 1 3 4 4 4 4 3 4 4 4 3 3 3
2 2 4 4 5 4 3 4 5 5 5 7 7 9 12 15 14 12 10 9 6 5 3 4 4 4 2 3 3 3 2 4 6 5 4 4 3 3 2 2 2 3 2 2
2 3 5 6 7 5 3 3 5 5 6 8 10 11 11 12 13 11 9 6 5 5 4 4 4 3 3 4 4 4 4 6 7 5 3 2 2 1 2 1 1 2 4 4
Wind_Direction
199 154 211 221 206 197 225 268 278 279 287 292 269 265 268 263 232 211 207 207 209 212 213 200 186 181 176 176 177 179 175 177 170 165 157 145 137 123 107 102 106 105 101 98
210 228 223 217 228 232 243 261 272 284 283 268 276 278 271 267 239 208 199 204 209 212 211 200 189 183 183 183 183 183 180 176 171 160 142 123 118 106 98 98 90 95 98 98
203 229 218 218 236 240 246 237 249 257 281 309 312 315 316 307 289 231 205 200 200 197 200 193 187 187 183 183 184 180 173 161 152 138 124 117 103 92 87 86 83 86 96 98
225 238 236 223 234 230 249 240 235 244 258 279 327 290 297 302 319 298 268 245 216 199 193 186 181 181 181 177 165 154 151 148 141 140 145 146 145 140 136 126 113 98 98 102
230 217 217 232 237 230 234 244 234 235 228 295 332 292 285 309 302 289 284 270 240 210 187 179 175 169 154 142 137 133 129 126 127 133 138 135 127 122 125 121 118 108 100 106
237 241 209 222 238 232 223 227 2 50 72 323 272 252 287 275 260 272 281 284 246 180 150 137 125 117 115 113 112 114 113 109 115 121 126 135 135 135 135 134 132 124 113 104
267 271 256 243 260 261 175 116 35 343 359 259 269 239 259 277 280 263 264 253 86 113 122 122 118 115 112 108 107 107 108 105 105 112 118 128 132 135 140 142 139 134 126 122
226 269 251 230 215 219 199 150 162 194 220 269 313 225 267 309 354 47 76 81 80 93 105 109 109 107 104 101 98 97 100 100 102 103 103 109 115 116 120 123 129 134 133 130
198 241 259 242 219 178 174 183 175 155 183 242 281 280 329 10 39 55 68 78 82 85 92 94 93 91 91 90 88 95 98 96 96 100 101 101 103 105 107 106 106 113 119 125
184 235 286 299 327 241 176 166 114 135 172 230 273 315 323 349 45 69 80 89 93 93 91 90 89 90 90 93 92 86 92 96 95 96 100 104 99 101 103 102 101 104 108 115
180 198 294 4 51 294 93 137 141 147 160 166 192 299 343 316 83 98 97 100 104 103 103 102 101 101 102 101 101 100 97 97 97 97 98 97 96 99 100 101 103 105 104 108
29 143 231 264 274 258 161 174 153 163 204 163 147 159 2 24 57 93 102 107 111 112 110 109 108 105 102 105 105 106 103 101 101 100 96 93 92 93 94 94 92 89 84 74
47 87 64 355 3 9 37 26 57 119 120 143 139 137 24 51 64 73 90 97 103 102 100 98 98 97 97 96 95 94 96 99 95 92 90 85 86 88 88 85 79 74 71 65
81 73 110 129 325 327 349 1 37 85 104 113 129 120 43 56 72 74 81 89 96 97 101 100 96 96 97 95 96 97 91 90 90 87 85 81 78 79 79 74 69 66 67 67
67 68 51 39 9 13 11 5 21 55 136 138 131 115 91 69 79 84 91 93 95 98 103 108 109 107 104 99 94 92 88 85 88 85 80 77 74 72 69 67 65 65 66 74
47 66 43 13 10 16 22 18 47 47 68 120 116 99 90 73 70 67 72 85 93 97 102 106 107 106 104 103 99 92 84 80 82 82 78 73 70 68 69 69 69 67 64 63
31 67 64 356 345 27 18 7 72 66 41 101 108 115 113 79 63 54 54 67 82 89 96 101 99 96 97 97 99 95 88 79 74 73 73 73 73 71 63 70 68 62 59 62
126 91 102 51 38 59 93 77 85 76 54 61 86 96 100 96 79 54 47 65 78 85 91 93 97 96 92 90 90 89 84 80 77 77 78 78 79 80 77 71 62 56 56 59
143 133 111 104 121 181 97 30 49 104 61 41 83 103 122 128 103 65 46 59 78 87 93 96 99 100 95 90 89 90 86 86 88 86 84 85 95 96 85 72 59 49 53 42
52 90 111 111 143 210 329 328 359 108 103 15 57 94 173 185 172 131 97 87 88 91 95 97 96 95 93 88 88 92 92 92 96 98 96 99 103 102 97 86 63 44 57 45
25 37 92 129 173 238 322 321 353 139 174 325 36 15 63 109 126 124 116 105 103 99 96 95 94 93 93 96 97 99 102 106 111 101 92 95 108 111 103 79 57 54 54 43
126 92 121 141 182 230 331 26 78 158 160 52 31 69 109 114 116 119 119 114 108 101 94 93 95 92 91 96 99 98 104 122 111 101 93 88 84 91 93 80 57 49 54 43
77 188 165 139 157 91 41 87 76 90 85 21 16 125 132 129 127 124 120 116 110 104 97 88 92 89 75 80 100 106 138 139 120 110 109 100 87 75 85 89 77 57 47 40
332 107 103 96 107 101 78 70 54 58 62 52 114 130 133 129 128 125 121 115 109 103 99 94 93 90 71 48 65 120 218 135 120 125 125 122 111 86 76 85 96 86 59 37
293 57 93 113 144 125 87 77 82 74 75 87 96 113 125 128 128 126 124 122 123 121 115 109 106 101 83 50 43 42 56 89 101 118 128 128 127 126 120 116 146 144 178 182
300 153 164 190 183 161 156 129 113 106 104 111 113 110 114 122 125 126 127 132 134 134 123 113 110 103 94 80 66 60 79 103 113 116 127 141 146 152 165 176 283 239 210 212
Height
1485 1494 1499 1497 1496 1499 1499 1502 1505 1496 1485 1487 1487 1483 1473 1467 1470 1472 1474 1476 1477 1476 1477 1481 1484 1488 1492 1496 1499 1502 1503 1506 1510 1513 1516 1520 1524 1527 1530 1533 1535 1537 1539 1541
1489 1493 1487 1487 1489 1492 1497 1503 1502 1493 1482 1483 1484 1481 1471 1465 1464 1464 1466 1468 1470 1471 1473 1476 1479 1483 1485 1489 1492 1496 1498 1501 1505 1508 1512 1516 1520 1524 1526 1529 1531 1532 1534 1536
1489 1485 1481 1486 1489 1493 1495 1500 1498 1496 1484 1481 1483 1485 1476 1465 1461 1460 1461 1461 1463 1464 1465 1468 1471 1475 1479 1484 1488 1491 1495 1498 1503 1506 1510 1513 1517 1520 1523 1525 1527 1529 1531 1533
1483 1478 1480 1484 1487 1489 1496 1485 1485 1487 1493 1498 1488 1505 1485 1472 1465 1461 1459 1458 1458 1458 1459 1461 1464 1469 1473 1479 1484 1489 1493 1497 1501 1504 1506 1507 1510 1514 1518 1522 1524 1526 1528 1529
1478 1473 1477 1481 1478 1479 1483 1475 1478 1480 1487 1495 1493 1501 1494 1475 1470 1462 1456 1455 1455 1455 1456 1457 1460 1464 1470 1476 1482 1487 1492 1496 1499 1502 1504 1507 1509 1513 1516 1519 1521 1523 1525 1527
1470 1466 1468 1469 1466 1467 1468 1473 1478 1487 1497 1509 1497 1499 1500 1480 1468 1460 1453 1452 1452 1452 1455 1458 1461 1465 1470 1476 1482 1487 1491 1495 1499 1501 1503 1506 1509 1511 1514 1516 1518 1520 1522 1524
1473 1466 1462 1462 1466 1464 1468 1488 1508 1508 1518 1514 1494 1495 1494 1469 1460 1456 1453 1451 1451 1452 1455 1459 1464 1469 1473 1479 1484 1489 1493 1496 1498 1500 1502 1506 1508 1510 1512 1514 1515 1517 1519 1521
1482 1477 1460 1456 1461 1466 1469 1480 1507 1517 1519 1511 1493 1496 1486 1468 1459 1454 1454 1455 1456 1458 1461 1465 1469 1474 1479 1484 1488 1492 1494 1497 1499 1501 1503 1505 1506 1508 1509 1511 1513 1515 1517 1519
1475 1473 1453 1449 1448 1454 1467 1475 1475 1495 1501 1509 1504 1489 1478 1469 1464 1462 1462 1463 1464 1467 1469 1472 1476 1480 1484 1489 1492 1495 1497 1499 1500 1501 1503 1504 1505 1507 1508 1510 1512 1514 1517 1518
1460 1467 1455 1447 1445 1448 1452 1461 1482 1496 1510 1516 1504 1497 1495 1482 1475 1470 1470 1471 1472 1474 1476 1479 1482 1485 1489 1492 1494 1498 1500 1501 1502 1502 1503 1504 1506 1507 1509 1511 1513 1514 1516 1518
1453 1466 1461 1453 1454 1458 1456 1461 1471 1486 1493 1508 1513 1509 1488 1485 1478 1475 1475 1476 1478 1479 1481 1483 1486 1489 1491 1493 1493 1497 1501 1503 1503 1504 1505 1506 1507 1508 1510 1512 1513 1515 1516 1517
1456 1464 1469 1460 1451 1447 1450 1456 1466 1484 1489 1493 1503 1510 1488 1486 1481 1478 1479 1480 1482 1484 1485 1487 1489 1490 1492 1493 1494 1496 1499 1503 1505 1506 1506 1507 1508 1509 1511 1512 1514 1515 1516 1517
1458 1467 1477 1474 1469 1459 1458 1458 1460 1469 1481 1491 1501 1508 1492 1489 1486 1484 1484 1485 1487 1488 1490 1491 1492 1492 1494 1496 1497 1498 1501 1503 1506 1507 1507 1508 1509 1510 1511 1512 1514 1514 1515 1515
1457 1471 1479 1484 1480 1470 1467 1463 1462 1470 1486 1489 1491 1499 1497 1493 1490 1490 1489 1490 1491 1493 1493 1494 1495 1495 1497 1498 1499 1501 1503 1505 1507 1508 1508 1509 1510 1511 1512 1513 1513 1514 1514 1514
1462 1475 1473 1472 1468 1466 1467 1466 1464 1468 1472 1483 1489 1495 1499 1497 1494 1493 1493 1493 1494 1495 1495 1496 1497 1498 1499 1500 1501 1503 1505 1506 1508 1509 1509 1510 1511 1512 1512 1513 1513 1513 1513 1513
1469 1475 1475 1477 1469 1468 1470 1469 1468 1471 1473 1480 1489 1498 1500 1499 1497 1496 1496 1496 1496 1497 1498 1498 1499 1500 1500 1501 1503 1504 1506 1507 1508 1509 1510 1511 1512 1512 1513 1513 1514 1513 1513 1512
1476 1479 1485 1487 1477 1474 1486 1481 1479 1483 1483 1484 1492 1499 1500 1500 1499 1500 1499 1498 1499 1499 1500 1500 1501 1501 1502 1503 1504 1505 1507 1509 1510 1511 1512 1513 1513 1513 1514 1514 1514 1513 1512 1511
1477 1482 1490 1490 1486 1496 1499 1488 1486 1490 1494 1493 1496 1500 1501 1502 1503 1503 1503 1503 1502 1502 1502 1502 1502 1503 1504 1505 1506 1507 1508 1510 1511 1513 1514 1514 1515 1515 1515 1515 1514 1513 1512 1510
1473 1481 1490 1496 1495 1494 1492 1489 1489 1494 1503 1501 1501 1503 1504 1504 1504 1507 1507 1506 1505 1504 1504 1504 1504 1504 1505 1507 1508 1509 1511 1513 1514 1515 1516 1516 1517 1516 1516 1515 1513 1512 1511 1509
1476 1479 1490 1495 1497 1500 1499 1491 1489 1493 1505 1504 1503 1503 1503 1503 1505 1508 1508 1507 1506 1506 1505 1505 1506 1506 1507 1509 1511 1512 1514 1515 1516 1517 1518 1518 1518 1517 1516 1515 1514 1512 1511 1509
1486 1488 1492 1496 1499 1498 1497 1491 1488 1498 1504 1503 1502 1501 1501 1502 1503 1506 1507 1508 1508 1507 1508 1508 1509 1510 1512 1513 1515 1516 1517 1518 1519 1519 1519 1519 1519 1518 1516 1515 1514 1512 1510 1509
1492 1494 1494 1496 1502 1505 1497 1494 1498 1502 1501 1501 1500 1500 1500 1501 1503 1505 1507 1508 1509 1510 1511 1512 1513 1515 1516 1518 1518 1519 1519 1520 1521 1521 1520 1520 1519 1518 1517 1515 1514 1512 1510 1508
1492 1493 1495 1498 1503 1501 1498 1498 1499 1499 1499 1499 1499 1499 1499 1501 1504 1506 1508 1510 1512 1513 1515 1517 1518 1519 1520 1521 1522 1522 1522 1522 1522 1522 1521 1521 1520 1519 1517 1516 1514 1512 1510 1508
1490 1489 1494 1499 1501 1501 1500 1499 1499 1499 1499 1498 1498 1498 1499 1501 1504 1507 1510 1513 1515 1517 1519 1521 1522 1523 1524 1524 1524 1524 1524 1524 1523 1523 1522 1522 1521 1519 1518 1516 1515 1513 1510 1508
1491 1490 1494 1499 1501 1501 1501 1500 1500 1499 1499 1499 1499 1499 1500 1502 1506 1510 1513 1516 1519 1521 1523 1524 1525 1526 1526 1526 1526 1526 1525 1525 1524 1523 1523 1522 1521 1520 1518 1517 1515 1513 1511 1508
1490 1491 1494 1496 1496 1498 1500 1500 1500 1500 1500 1500 1500 1502 1504 1506 1509 1513 1517 1520 1522 1524 1526 1527 1528 1528 1529 1529 1528 1528 1527 1526 1525 1524 1524 1522 1521 1520 1518 1517 1515 1513 1511 1508